CAPE
1 0 0 1 2 2 2 1 0 0 0 0 2 2 3 1 4 5 0 0 0 0 0 0 0 0 0 0 0 0 0 0 0 0 7 21 28 49 43 56 52 36 46 28 74 51 16 0 38 14 120 213 85 21
1 1 0 0 0 0 0 0 0 0 0 0 3 2 3 2 4 4 0 0 0 0 0 0 0 0 0 0 0 0 0 0 0 12 21 32 43 50 77 66 91 42 8 44 10 56 0 4 1 2 0 1 1 27
0 0 0 0 0 0 0 0 1 0 1 1 1 2 4 4 4 4 3 0 0 0 0 0 7 0 0 0 0 0 39 4 10 7 0 0 14 61 66 27 103 11 0 0 1 1 1 2 0 0 3 1 0 0
0 0 0 0 0 0 0 0 0 0 1 0 0 2 3 4 3 4 3 0 0 0 1 0 0 0 0 0 0 0 0 0 17 3 20 42 79 23 1 0 0 0 0 0 0 2 1 6 1 0 0 0 1 0
0 0 0 0 0 0 0 2 1 1 1 1 0 1 3 2 1 3 1 0 0 0 15 23 4 3 14 8 15 21 54 57 44 25 53 28 4 10 1 2 2 5 5 3 1 2 12 3 3 12 14 18 9 0
0 0 0 0 0 1 2 1 2 1 1 0 0 1 1 0 0 0 0 0 0 0 4 32 12 20 20 22 13 0 8 28 9 22 19 0 0 6 14 10 9 13 11 20 18 25 27 22 8 8 10 3 10 19
0 0 0 0 1 3 1 1 2 1 0 0 0 0 0 0 0 0 0 0 0 0 22 92 17 16 7 64 61 30 0 0 1 7 9 0 8 6 1 3 11 13 6 4 10 6 1 5 12 9 15 19 18 11
0 0 0 1 3 2 3 2 2 0 0 0 0 0 0 0 0 0 0 0 0 0 9 85 55 54 48 29 68 43 9 8 0 0 0 1 5 12 1 12 11 4 2 0 8 5 10 13 20 19 11 25 10 3
0 0 1 1 2 2 2 1 3 0 0 0 0 0 0 0 8 1 0 0 0 3 85 54 59 34 63 36 41 41 13 15 0 5 0 0 13 16 16 9 10 4 3 4 5 4 6 5 5 6 9 13 29 8
0 0 2 1 2 2 1 3 0 0 0 0 0 0 8 0 0 0 0 4 2 44 36 57 83 8 38 6 31 12 26 16 13 2 0 5 3 22 13 3 2 2 4 1 2 1 3 1 2 2 3 11 16 10
0 0 1 2 2 1 0 3 0 0 0 0 0 0 0 0 0 10 131 148 167 66 120 104 97 52 51 5 35 29 26 6 7 4 0 7 2 14 2 0 0 2 4 6 6 5 5 4 4 2 3 8 3 22
0 0 0 3 3 0 0 0 1 3 4 1 1 3 0 13 226 185 85 63 65 43 68 26 38 18 49 10 18 10 9 6 9 0 0 6 13 5 0 0 2 0 4 4 7 4 2 4 3 3 4 4 13 18
0 0 0 1 1 0 0 0 1 2 3 3 1 1 0 63 13 27 26 63 39 44 35 47 34 6 33 11 17 5 1 15 0 8 11 10 13 0 0 3 2 2 2 4 7 5 4 5 4 3 5 2 3 2
0 0 0 0 0 0 0 2 2 1 1 0 0 0 6 11 17 20 26 34 25 24 26 29 28 2 0 4 0 0 0 0 0 0 1 2 1 0 0 2 2 1 3 5 5 4 3 3 4 6 5 3 3 5
0 0 0 0 0 0 0 0 0 2 0 0 0 1 15 11 27 27 23 33 19 24 20 28 24 0 0 0 0 0 0 0 0 0 8 1 0 0 1 6 3 3 5 7 3 3 3 3 4 3 3 3 4 5
0 0 0 0 0 0 0 0 2 4 0 0 0 3 5 32 13 22 38 24 30 37 23 12 0 0 0 0 0 0 0 0 6 9 3 1 1 2 2 13 8 5 4 5 4 4 3 3 3 3 2 3 2 2
0 0 0 0 0 0 0 0 3 2 0 0 11 0 15 23 32 23 33 35 28 36 10 0 0 0 0 0 0 0 0 1 2 1 2 2 2 2 18 20 4 3 4 4 4 4 6 6 5 5 4 5 2 2
0 0 0 0 0 0 0 1 1 1 0 8 13 27 9 9 26 22 31 33 22 18 0 0 0 0 0 0 0 0 1 3 1 0 0 1 2 2 10 3 4 6 4 5 3 2 6 5 4 3 4 4 0 0
0 0 0 0 2 3 0 0 1 0 6 17 22 8 13 28 10 5 30 11 4 0 5 0 0 0 0 0 0 1 2 0 0 0 0 1 1 2 0 1 7 12 4 3 6 1 3 2 2 3 0 1 1 0
0 0 0 0 0 3 0 5 3 2 5 6 14 22 13 22 17 35 40 34 27 15 11 13 0 0 0 0 0 0 0 0 0 0 0 0 1 1 2 3 2 2 3 2 1 1 0 2 1 0 0 0 0 0
0 0 0 0 4 4 1 0 4 8 2 14 14 24 11 26 25 23 26 38 16 16 14 0 0 0 0 0 0 0 0 0 0 0 0 0 0 0 1 3 0 0 0 1 0 2 0 0 0 0 0 0 0 0
0 0 1 1 1 3 5 0 6 4 0 12 20 27 15 14 32 16 34 42 24 38 17 0 0 0 0 0 0 0 0 0 0 0 0 0 0 0 0 1 0 0 0 0 0 0 0 0 0 0 0 0 0 0
1 1 3 1 3 2 0 7 3 16 11 19 24 17 20 33 41 42 25 38 50 32 0 0 0 0 0 0 0 0 0 0 0 0 0 0 0 0 0 0 0 0 0 0 0 0 0 0 0 0 0 0 0 1
0 2 1 3 9 2 2 2 1 9 15 21 19 15 11 18 33 39 28 37 37 0 0 0 0 0 0 0 0 0 0 0 0 0 0 0 0 0 0 0 0 0 0 0 0 0 0 0 0 0 0 0 0 0
0 0 1 0 2 1 1 6 22 12 17 46 27 32 43 64 26 18 8 53 24 11 0 0 6 10 8 0 0 0 0 0 0 0 0 0 0 0 0 0 0 0 0 0 0 0 0 0 0 0 0 0 0 1
0 1 0 12 13 1 4 5 3 13 13 8 24 80 81 65 30 20 33 33 36 13 1 2 11 8 15 0 0 0 0 0 0 0 0 0 0 0 0 0 0 0 0 0 0 0 0 0 0 0 0 0 0 0
0 1 1 7 2 6 9 5 7 18 9 10 27 23 23 12 17 82 70 91 45 36 22 11 4 0 10 0 0 0 0 0 0 0 0 0 0 0 0 0 0 0 0 0 0 0 0 0 0 0 0 0 0 0
0 0 4 5 5 6 5 2 1 0 1 33 29 13 19 31 77 89 92 110 128 79 67 35 3 0 0 0 0 0 0 0 0 0 0 0 0 0 0 0 0 0 0 0 0 0 0 0 0 0 0 0 0 0
4 1 2 3 1 3 6 0 0 0 1 5 1 0 7 46 44 19 5 9 14 22 34 13 1 0 0 0 0 0 0 0 0 0 0 0 0 0 0 0 0 0 0 0 0 0 0 0 0 0 0 0 0 0
0 1 4 1 6 4 4 8 9 6 6 4 2 0 0 0 0 4 2 2 10 7 5 9 14 0 0 0 0 0 0 0 0 0 0 0 0 0 0 0 0 0 0 0 0 0 0 0 0 0 0 0 0 0
4 2 2 4 3 2 2 10 9 11 11 13 8 0 0 1 2 1 0 0 0 0 3 17 28 3 0 0 0 0 0 0 0 0 0 0 0 0 0 0 0 0 0 0 0 0 0 0 0 0 0 0 0 0
0 3 4 1 3 6 13 14 10 17 10 9 13 7 7 1 7 37 66 31 11 2 0 0 12 22 0 0 0 0 0 0 0 0 0 0 0 0 0 0 0 0 0 0 0 0 0 0 0 0 0 0 0 0
1 2 5 2 0 1 1 5 6 2 16 14 13 5 8 9 11 49 194 104 85 39 11 2 0 5 8 0 0 0 0 0 0 0 0 0 0 0 0 0 0 0 0 0 0 0 0 0 0 0 0 0 0 0
CIN
-0 -0 -0 -0 -6 -3 -1 -0 -0 -0 -0 -0 -0 -0 -0 -0 -0 -1 -0 -0 -0 -0 -0 -0 -0 -0 -0 -0 -0 -0 -0 -0 -0 -1 -1 -3 -7 -5 -12 -3 -5 -5 -5 -9 -1 -1 -1 -0 -68 -27 -6 -20 -86 -36
-0 -0 -0 -18 -0 -0 -0 -0 -0 -0 -0 -0 -0 -0 -0 -0 -0 -1 -0 -0 -0 -0 -0 -0 -0 -0 -0 -0 -0 -0 -0 -0 -0 -4 -9 -4 -5 -3 -4 -8 -10 -5 -0 -3 -15 -2 -0 -0 -0 -0 -0 -0 -0 -13
-0 -0 -0 -0 -0 -0 -0 -0 -0 -0 -0 -0 -0 -0 -0 -0 -0 -0 -0 -0 -0 -0 -0 -0 -4 -0 -0 -0 -0 -0 -6 -19 -0 -3 -0 -0 -2 -7 -3 -15 -1 -0 -0 -0 -0 -0 -0 -0 -0 -0 -0 -0 -0 -0
-0 -0 -0 -0 -0 -0 -0 -0 -0 -0 -0 -0 -0 -0 -0 -0 -0 -0 -0 -0 -0 -0 -0 -0 -0 -0 -0 -0 -0 -0 -0 -0 -27 -4 -2 -3 -0 -6 -0 -0 -0 -0 -0 -0 -0 -2 -0 -0 -0 -0 -0 -0 -0 -0
-0 -0 -0 -0 -0 -0 -0 -0 -0 -0 -0 -0 -0 -0 -0 -0 -0 -0 -0 -0 -0 -0 -5 -8 -8 -2 -2 -1 -1 -3 -1 -4 -1 -4 -7 -2 -4 -16 -0 -0 -0 -0 -1 -0 -0 -1 -0 -0 -1 -1 -2 -0 -0 -0
-0 -0 -0 -0 -0 -0 -0 -0 -0 -0 -0 -0 -0 -0 -0 -0 -0 -0 -0 -0 -0 -0 -11 -11 -7 -1 -3 -1 -1 -0 -1 -1 -2 -3 -2 -0 -0 -0 -0 -0 -1 -0 -3 -1 -0 -1 -2 -1 -2 -1 -3 -6 -3 -0
-0 -0 -0 -0 -0 -0 -0 -0 -0 -0 -0 -0 -0 -0 -0 -0 -0 -0 -0 -0 -0 -0 -84 -1 -49 -21 -12 -1 -1 -1 -2 -0 -2 -0 -0 -0 -1 -0 -3 -0 -1 -1 -2 -4 -1 -4 -1 -2 -1 -1 -1 -1 -3 -1
-0 -0 -0 -0 -0 -0 -0 -0 -0 -0 -0 -0 -0 -0 -0 -0 -0 -0 -0 -0 -0 -0 -60 -3 -5 -2 -7 -4 -3 -1 -8 -3 -0 -0 -0 -0 -2 -1 -0 -1 -1 -2 -2 -0 -2 -1 -0 -1 -1 -0 -1 -1 -2 -1
-0 -0 -0 -0 -0 -0 -0 -0 -0 -0 -0 -0 -0 -0 -0 -0 -0 -0 -0 -0 -0 -17 -16 -3 -3 -2 -2 -3 -9 -3 -2 -2 -0 -1 -0 -0 -2 -0 -1 -1 -1 -1 -1 -1 -0 -0 -0 -0 -0 -0 -2 -1 -1 -1
-0 -0 -0 -0 -0 -0 -2 -0 -0 -0 -0 -0 -0 -0 -49 -0 -0 -0 -0 -0 -1 -36 -35 -2 -3 -21 -1 -1 -7 -2 -1 -2 -5 -2 -0 -1 -1 -1 -2 -2 -2 -2 -1 -0 -0 -0 -0 -0 -0 -0 -0 -0 -0 -0
-0 -0 -0 -0 -0 -0 -0 -1 -0 -0 -0 -0 -0 -0 -0 -0 -0 -5 -0 -2 -4 -6 -1 -1 -3 -2 -3 -3 -3 -2 -1 -3 -1 -4 -0 -0 -0 -1 -1 -0 -0 -2 -0 -0 -0 -0 -0 -0 -0 -0 -0 -0 -0 -0
-0 -0 -0 -0 -0 -0 -0 -0 -0 -0 -0 -0 -0 -0 -0 -12 -1 -0 -3 -1 -2 -4 -2 -2 -2 -2 -2 -1 -2 -5 -3 -2 -1 -0 -0 -0 -1 -1 -0 -0 -1 -0 -0 -0 -0 -0 -0 -0 -0 -0 -0 -0 -0 -0
-0 -0 -0 -0 -0 -0 -0 -0 -0 -0 -0 -0 -0 -0 -0 -5 -9 -1 -2 -3 -3 -2 -1 -3 -3 -5 -5 -2 -2 -2 -1 -1 -0 -1 -0 -2 -0 -0 -0 -1 -0 -0 -0 -0 -0 -0 -0 -0 -0 -0 -0 -0 -0 -0
-0 -0 -0 -0 -0 -0 -0 -0 -0 -0 -0 -0 -0 -0 -6 -2 -4 -6 -6 -3 -2 -2 -2 -2 -1 -1 -0 -1 -0 -0 -0 -0 -0 -0 -0 -1 -0 -0 -0 -2 -0 -0 -0 -0 -0 -0 -0 -0 -0 -0 -0 -0 -0 -0
-0 -0 -0 -0 -0 -0 -0 -0 -0 -0 -0 -0 -0 -1 -1 -2 -2 -3 -1 -4 -3 -1 -3 -3 -3 -0 -0 -0 -0 -0 -0 -0 -0 -0 -3 -0 -1 -0 -1 -0 -0 -0 -0 -0 -0 -0 -0 -0 -0 -0 -0 -0 -0 -0
-0 -0 -0 -0 -0 -0 -0 -0 -0 -0 -0 -0 -0 -1 -1 -2 -3 -5 -2 -2 -3 -2 -3 -2 -0 -0 -0 -0 -0 -0 -0 -0 -2 -2 -1 -1 -1 -1 -1 -0 -0 -0 -0 -0 -0 -0 -0 -0 -0 -0 -0 -0 -0 -0
-0 -0 -0 -0 -0 -0 -0 -0 -0 -0 -0 -0 -2 -0 -2 -1 -2 -2 -2 -1 -1 -1 -3 -0 -0 -0 -0 -0 -0 -0 -0 -2 -2 -1 -2 -0 -1 -0 -0 -0 -3 -0 -0 -0 -0 -0 -0 -0 -0 -0 -0 -0 -0 -0
-0 -0 -0 -0 -0 -0 -0 -0 -0 -0 -0 -4 -1 -1 -1 -1 -3 -5 -1 -1 -2 -3 -0 -0 -0 -0 -0 -0 -0 -0 -1 -1 -1 -0 -0 -0 -0 -0 -0 -0 -0 -0 -0 -0 -0 -0 -0 -0 -0 -0 -0 -0 -0 -0
-0 -0 -0 -0 -0 -0 -0 -0 -0 -0 -6 -1 -1 -3 -1 -1 -1 -0 -1 -1 -1 -0 -2 -0 -0 -0 -0 -0 -0 -1 -1 -0 -0 -1 -0 -0 -1 -0 -1 -0 -0 -0 -0 -0 -0 -0 -0 -0 -0 -0 -1 -0 -0 -0
-0 -0 -0 -0 -0 -0 -0 -0 -0 -0 -4 -7 -1 -3 -2 -0 -1 -0 -1 -1 -1 -3 -2 -2 -0 -0 -0 -0 -0 -0 -0 -0 -0 -0 -0 -0 -1 -0 -0 -0 -0 -0 -0 -1 -0 -1 -0 -0 -1 -0 -0 -0 -0 -0
-0 -0 -0 -0 -0 -0 -0 -0 -1 -1 -2 -2 -7 -0 -1 -1 -2 -2 -2 -1 -2 -1 -1 -0 -0 -0 -0 -0 -0 -0 -0 -0 -0 -0 -0 -0 -0 -1 -1 -1 -1 -0 -0 -1 -1 -0 -0 -0 -0 -0 -1 -2 -0 -0
-1 -0 -1 -0 -0 -0 -0 -0 -1 -1 -0 -1 -1 -1 -1 -2 -0 -3 -2 -1 -0 -1 -1 -0 -0 -0 -0 -0 -0 -0 -0 -0 -0 -0 -0 -0 -0 -0 -0 -0 -0 -0 -0 -0 -0 -0 -0 -0 -0 -0 -0 -0 -0 -0
-0 -1 -0 -0 -0 -0 -0 -1 -0 -2 -0 -1 -1 -4 -2 -1 -1 -2 -1 -1 -1 -1 -0 -0 -0 -0 -0 -0 -0 -0 -0 -0 -0 -0 -0 -0 -0 -0 -0 -0 -0 -0 -0 -0 -0 -0 -0 -0 -0 -0 -0 -0 -4 -1
-0 -0 -0 -0 -0 -3 -1 -0 -2 -0 -0 -0 -2 -2 -2 -6 -2 -1 -2 -0 -1 -0 -0 -0 -0 -0 -0 -0 -0 -0 -0 -0 -0 -0 -0 -0 -0 -0 -0 -0 -0 -0 -0 -0 -0 -0 -0 -0 -0 -0 -0 -2 -0 -0
-0 -0 -2 -0 -2 -0 -1 -2 -0 -1 -1 -1 -1 -1 -0 -0 -2 -2 -4 -0 -2 -2 -0 -0 -2 -0 -1 -0 -0 -0 -0 -0 -0 -0 -0 -0 -0 -0 -0 -0 -0 -0 -0 -0 -0 -0 -0 -0 -0 -0 -0 -0 -0 -1
-0 -0 -0 -0 -0 -1 -7 -1 -1 -0 -0 -1 -1 -0 -1 -0 -1 -1 -1 -1 -2 -2 -1 -1 -1 -2 -1 -0 -0 -0 -0 -0 -0 -0 -0 -0 -0 -0 -0 -0 -0 -0 -0 -0 -0 -0 -0 -0 -0 -0 -0 -0 -0 -1
-0 -0 -0 -1 -5 -2 -1 -2 -1 -0 -1 -1 -1 -2 -1 -1 -1 -1 -0 -1 -4 -1 -2 -3 -5 -0 -0 -0 -0 -0 -0 -0 -0 -0 -0 -0 -0 -0 -0 -0 -0 -0 -0 -0 -0 -0 -0 -0 -0 -0 -0 -0 -0 -0
-0 -0 -1 -2 -1 -1 -1 -1 -2 -0 -1 -0 -0 -1 -2 -1 -1 -5 -2 -0 -2 -1 -1 -1 -4 -0 -1 -0 -0 -0 -0 -0 -0 -0 -0 -0 -0 -0 -0 -0 -0 -0 -0 -0 -0 -0 -1 -0 -0 -0 -0 -0 -0 -0
-1 -1 -0 -0 -2 -0 -1 -1 -1 -0 -3 -3 -3 -0 -1 -2 -8 -10 -10 -1 -2 -2 -1 -1 -0 -0 -0 -0 -0 -0 -0 -0 -0 -0 -0 -0 -0 -0 -0 -0 -0 -0 -0 -0 -0 -0 -0 -0 -0 -0 -0 -0 -0 -0
-0 -0 -0 -5 -0 -0 -1 -1 -2 -2 -2 -3 -2 -0 -0 -0 -0 -5 -3 -2 -2 -9 -23 -3 -2 -0 -0 -0 -0 -0 -0 -0 -0 -0 -0 -0 -0 -0 -0 -0 -0 -0 -0 -0 -0 -0 -0 -0 -0 -0 -0 -0 -0 -0
-0 -1 -0 -0 -0 -0 -3 -0 -0 -0 -1 -2 -1 -1 -0 -2 -2 -3 -0 -0 -0 -0 -1 -2 -2 -1 -0 -0 -0 -0 -0 -0 -0 -0 -0 -0 -0 -0 -0 -0 -0 -0 -0 -0 -0 -0 -0 -0 -0 -0 -0 -0 -0 -0
-1 -0 -0 -0 -0 -2 -0 -1 -1 -1 -3 -3 -2 -3 -3 -8 -2 -4 -3 -1 -1 -1 -0 -0 -3 -2 -0 -0 -0 -0 -0 -0 -0 -0 -0 -0 -0 -0 -0 -0 -0 -0 -0 -0 -0 -0 -0 -0 -0 -0 -0 -0 -0 -0
-3 -5 -10 -2 -0 -1 -2 -0 -1 -2 -0 -1 -1 -3 -6 -2 -2 -8 -1 -12 -2 -2 -1 -1 -0 -4 -17 -0 -0 -0 -0 -0 -0 -0 -0 -0 -0 -0 -0 -0 -0 -0 -0 -0 -0 -0 -0 -0 -0 -0 -0 -0 -0 -0
Wind_Speed
39 40 40 39 38 39 40 42 42 41 39 36 35 34 31 30 30 28 16 8 8 21 24 20 20 22 23 22 24 24 25 10 16 13 12 14 17 17 21 22 24 27 30 18 25 30 25 33 24 21 26 24 26 20
40 40 40 39 39 40 41 42 41 39 36 35 35 33 31 29 28 27 5 14 10 8 20 19 18 20 21 23 25 19 20 19 21 22 21 19 13 11 10 11 23 17 22 23 25 26 27 26 24 27 30 27 29 32
40 39 39 37 38 41 41 41 39 36 35 33 33 31 29 28 27 24 10 8 12 10 8 9 14 18 21 23 20 18 18 21 18 21 14 3 1 21 10 18 19 20 29 25 33 28 38 35 29 33 38 35 34 37
39 38 37 39 39 40 42 39 35 33 33 33 30 29 27 27 26 20 9 10 10 12 15 12 14 17 21 21 19 16 18 20 14 12 10 5 13 21 18 18 21 19 22 27 25 29 40 25 38 38 39 37 38 39
35 34 35 35 35 40 38 32 28 25 26 28 27 27 26 25 23 14 12 12 11 14 17 15 14 17 20 18 18 19 20 14 14 17 15 17 17 18 18 17 19 19 21 23 22 37 37 40 38 40 42 38 37 39
32 32 32 31 31 30 32 27 27 24 22 24 26 26 25 22 16 15 14 12 12 12 13 14 12 14 17 19 20 21 22 21 18 16 17 17 15 15 17 18 18 19 17 19 23 34 35 37 37 39 40 42 40 37
30 28 27 16 19 30 28 27 24 23 22 23 25 24 22 17 17 8 16 15 14 13 13 12 13 10 18 16 19 19 22 22 20 17 18 17 17 16 18 19 19 23 27 31 34 38 35 38 44 44 43 43 41 40
21 18 17 15 25 27 27 25 24 21 20 20 19 18 16 18 15 14 14 14 15 12 12 12 18 15 14 20 19 20 18 17 21 18 17 19 17 17 18 20 25 26 28 31 33 33 23 25 32 39 41 40 40 40
21 19 16 21 23 25 25 21 21 24 20 19 15 15 18 17 14 16 12 11 11 12 11 16 18 19 10 14 18 17 15 18 17 18 19 18 18 19 22 21 27 27 23 15 21 23 25 26 22 42 41 39 38 37
20 18 14 18 22 25 24 22 23 23 17 15 15 17 17 16 13 12 15 14 13 13 12 16 14 21 21 23 18 15 15 18 18 19 17 19 18 18 19 26 23 20 25 19 18 21 21 20 19 20 34 34 33 34
18 16 13 18 21 22 23 22 24 21 13 13 14 16 15 13 14 15 14 14 14 13 14 18 22 22 19 23 18 19 17 16 17 17 19 20 19 23 24 26 21 25 19 19 21 21 15 10 10 17 24 26 28 28
16 14 12 20 22 20 19 21 21 16 15 15 17 15 14 15 15 14 14 15 14 16 15 15 21 21 19 18 15 16 15 14 18 18 18 20 21 25 25 23 26 25 17 17 24 23 13 14 4 13 15 17 20 24
16 14 12 17 23 19 21 23 20 19 17 16 16 16 15 16 15 14 15 15 14 14 14 13 18 22 16 18 17 17 16 17 17 16 20 18 24 28 25 23 23 19 18 16 16 23 18 15 13 13 3 7 15 16
17 16 18 15 24 24 25 23 21 17 16 17 16 15 14 15 17 16 19 19 18 13 14 13 14 19 19 18 18 16 18 17 17 19 20 24 27 28 23 26 23 17 14 15 13 16 11 11 16 20 20 20 13 16
18 16 20 8 28 30 27 23 19 15 16 14 3 14 14 16 17 18 16 18 19 14 14 10 14 14 17 16 18 18 15 14 18 18 23 26 27 24 26 24 24 21 17 19 26 20 25 23 22 25 26 25 25 24
17 10 24 29 30 31 26 22 16 16 15 14 13 13 13 14 17 18 18 19 18 15 14 14 14 14 13 12 12 13 13 13 15 23 23 22 23 25 22 24 23 24 24 24 28 31 31 29 29 27 27 26 25 25
13 15 28 30 29 29 23 18 17 15 16 14 12 11 13 13 14 17 18 20 17 12 19 14 14 16 13 13 14 14 13 13 17 21 22 22 23 21 23 24 25 25 27 28 28 30 30 30 29 28 28 28 29 28
13 10 16 20 29 25 18 17 17 17 16 10 15 12 12 14 15 17 17 19 18 19 18 18 16 16 16 14 14 14 14 16 17 19 20 21 21 21 24 25 25 26 28 28 29 30 31 30 29 29 29 29 29 29
11 8 5 3 20 19 18 16 16 18 18 16 16 13 12 14 14 14 15 17 19 18 17 18 17 17 17 16 15 15 17 16 16 18 19 20 20 22 22 22 24 25 27 28 28 29 29 30 30 29 29 29 29 29
6 15 13 14 15 16 15 14 16 18 19 19 19 17 14 13 13 12 13 13 15 16 16 18 18 18 17 18 17 17 16 16 14 15 17 19 19 20 20 21 22 22 23 26 27 27 28 29 29 29 29 30 30 30
10 23 21 16 14 13 15 17 16 16 19 20 21 16 16 12 9 10 12 12 15 15 17 18 19 18 18 18 18 18 18 16 17 16 17 17 18 19 19 20 21 20 22 24 24 25 25 26 25 27 28 29 29 30
17 24 16 15 12 13 14 14 18 22 18 20 20 16 16 14 11 10 10 12 14 15 16 16 17 17 17 17 18 19 19 19 19 19 19 18 18 19 20 20 20 21 23 23 23 23 24 24 25 26 27 28 30 30
18 18 14 14 13 12 15 12 16 17 16 17 16 16 15 13 11 11 14 11 12 14 14 16 17 17 17 17 18 18 18 17 18 18 18 19 19 19 20 20 21 21 23 23 23 24 24 22 24 25 26 27 27 28
19 16 15 14 13 11 14 15 16 18 19 18 18 19 18 13 10 13 14 12 11 11 13 14 15 16 17 16 16 17 16 16 18 18 17 17 18 18 19 20 21 21 22 22 22 22 23 23 21 24 25 25 26 27
18 16 14 15 12 13 11 17 18 18 19 18 18 17 17 15 16 16 13 11 10 9 11 12 13 14 14 15 15 16 15 15 16 16 16 16 17 17 18 19 19 20 20 20 21 22 22 23 23 24 24 25 25 26
18 16 16 16 15 14 12 15 18 20 22 20 18 18 19 18 18 17 12 10 9 9 10 11 13 13 14 14 13 13 13 13 14 15 15 15 15 15 16 17 17 18 18 19 19 20 21 21 22 22 23 23 22 23
19 18 16 13 13 12 12 15 21 20 20 20 22 21 19 20 19 14 11 12 11 10 9 11 13 13 14 14 15 14 14 14 13 13 14 14 14 14 14 15 15 16 17 18 18 19 19 19 20 21 21 21 21 22
18 18 18 18 13 9 8 17 22 20 18 19 20 20 20 20 19 15 12 14 13 13 12 12 12 12 12 14 15 13 13 14 14 15 15 14 13 14 14 15 16 16 16 16 16 16 16 18 18 19 20 21 21 21
18 19 20 18 16 13 9 9 15 20 23 21 24 26 21 19 18 18 19 19 14 13 14 13 12 11 11 11 12 12 12 12 12 12 12 12 12 12 13 14 15 14 15 17 16 17 19 18 19 19 19 19 20 20
18 20 20 18 15 13 11 19 25 28 30 30 30 31 33 32 32 31 29 21 14 16 17 18 11 7 7 8 9 11 8 9 9 10 10 10 11 11 12 13 13 13 14 15 16 17 16 16 17 17 17 17 17 18
17 18 18 17 16 17 14 23 29 28 32 33 33 34 34 33 32 31 32 32 32 31 27 17 10 5 4 5 6 8 7 8 8 10 10 11 10 11 12 12 12 13 13 14 14 15 16 14 16 16 16 17 18 16
16 16 16 17 19 27 31 28 30 27 27 28 28 23 25 26 28 28 20 22 25 25 21 28 13 5 3 5 6 7 7 9 10 10 10 11 11 11 12 12 12 12 12 12 13 14 14 14 15 15 15 15 16 16
15 11 15 18 19 21 26 30 25 24 14 10 20 16 21 24 18 16 15 18 19 19 16 15 11 10 4 6 8 8 9 8 9 11 12 11 10 10 11 11 11 11 11 11 11 12 12 13 13 13 14 14 15 15
Wind_Direction
351 349 348 348 348 345 339 330 318 314 307 300 304 308 303 302 304 306 282 50 68 308 299 334 333 328 320 320 311 320 315 353 335 336 328 325 322 322 319 319 316 310 307 303 308 302 296 315 312 307 311 314 318 319
353 352 350 351 349 343 337 332 318 307 299 297 299 300 297 296 298 303 102 33 63 43 320 336 343 336 335 328 314 335 329 334 327 318 326 335 357 353 346 325 331 328 322 315 318 312 316 322 318 310 312 311 307 304
354 354 353 353 349 341 337 332 313 305 299 295 294 291 290 290 289 283 200 138 43 59 85 74 28 3 352 342 344 337 335 319 337 316 215 152 309 337 354 347 340 340 324 318 311 313 306 306 311 305 304 302 301 303
356 356 355 351 350 344 328 315 306 299 298 295 288 285 282 284 281 251 108 85 86 23 2 10 31 9 355 355 352 1 252 262 225 201 196 16 5 353 354 349 342 343 340 329 323 317 313 310 307 302 303 300 295 295
359 0 358 358 356 345 311 301 297 291 288 286 283 280 281 282 271 183 127 128 110 34 358 22 37 16 347 320 333 356 348 240 238 9 9 3 3 359 359 1 357 359 351 344 335 321 316 313 318 310 299 298 294 291
2 3 2 2 2 305 303 297 295 290 286 282 279 277 277 273 217 89 76 99 97 67 53 32 60 49 8 354 348 343 325 315 13 31 19 20 23 21 15 7 12 7 354 340 332 323 320 319 318 313 304 292 293 291
4 5 5 355 311 304 302 300 294 289 284 283 278 274 266 222 146 134 30 16 60 71 72 47 335 348 288 4 343 360 2 2 7 32 28 33 32 33 22 11 8 2 353 343 335 329 327 323 314 304 298 291 285 282
2 358 356 328 305 304 303 299 295 290 288 283 274 266 212 119 147 85 72 43 50 88 84 80 323 357 325 330 352 10 22 36 22 32 40 24 30 28 19 15 4 359 353 347 342 339 334 331 328 308 296 289 283 279
4 1 344 307 304 304 303 298 297 298 288 276 260 205 152 152 113 53 142 147 112 108 97 39 307 337 356 38 24 37 48 27 39 33 26 28 24 17 18 14 5 3 358 338 350 345 341 338 332 311 283 276 268 271
2 360 328 307 304 304 302 300 303 301 283 257 214 170 119 71 188 144 91 89 100 97 77 32 13 329 341 315 3 31 49 22 24 27 41 27 27 30 32 16 12 9 10 4 340 346 346 342 344 270 270 261 258 258
359 355 322 307 303 301 301 301 307 301 274 261 247 224 237 211 108 117 102 87 77 73 51 21 338 295 351 309 2 8 22 28 24 29 27 26 30 28 21 17 22 21 17 11 4 354 344 331 295 262 256 250 248 248
355 347 332 302 299 294 291 297 297 289 276 249 226 215 178 116 107 103 86 75 75 64 52 42 353 312 341 354 25 23 23 34 17 25 25 23 28 21 20 24 25 26 28 18 19 20 22 38 293 265 238 224 239 260
352 331 324 295 296 291 295 294 285 272 258 216 190 146 122 101 100 94 84 68 69 62 61 57 20 320 357 360 4 12 20 17 21 26 19 26 16 15 22 28 31 38 36 30 20 41 53 53 340 338 279 253 286 297
351 321 300 282 297 296 298 291 284 270 238 188 182 128 119 85 71 76 49 46 49 67 57 57 58 352 343 359 4 16 12 19 19 16 15 10 9 12 26 25 32 41 41 38 36 46 15 359 352 359 359 2 2 359
356 330 288 7 306 305 299 290 278 279 266 268 15 64 66 58 62 54 61 55 49 60 59 82 72 69 23 22 9 14 31 38 20 18 7 6 10 20 18 27 32 40 46 49 43 338 349 356 2 8 8 10 14 14
354 359 13 306 305 306 294 288 299 299 311 327 348 34 54 52 38 46 49 45 48 57 65 74 83 87 88 84 78 63 53 50 34 6 8 19 20 20 32 30 36 37 41 46 39 28 12 1 5 6 8 9 10 14
358 40 304 303 300 298 294 303 301 306 307 334 356 9 7 37 37 34 35 33 48 65 46 75 79 72 84 80 71 66 64 52 34 20 20 25 25 36 36 34 35 38 40 41 42 37 22 16 15 11 11 13 17 17
10 352 291 286 304 308 314 304 298 300 299 347 322 1 9 7 18 19 33 32 43 41 52 51 68 65 59 62 65 68 63 51 46 34 29 29 36 44 37 40 45 43 42 43 42 39 32 27 20 20 24 23 23 22
326 322 318 307 12 3 332 309 299 291 292 305 315 337 3 6 18 24 29 35 36 48 59 54 55 51 52 61 66 64 60 59 63 51 46 42 50 44 48 51 49 48 44 45 47 47 45 38 36 32 29 26 25 25
329 29 31 31 37 11 352 336 303 293 288 292 297 312 339 358 13 26 34 42 38 43 54 54 51 50 54 56 63 63 64 66 79 80 69 54 57 52 57 58 57 60 60 54 52 51 49 43 38 40 43 37 28 24
28 10 18 38 34 27 344 324 312 304 293 291 292 310 319 352 21 27 20 31 26 41 36 39 45 53 59 59 61 65 64 71 69 76 70 65 65 63 70 67 64 70 68 61 60 61 61 55 59 55 45 38 42 42
19 3 26 33 44 16 346 325 302 294 297 290 292 302 308 324 358 14 27 15 19 33 31 42 49 61 62 65 65 61 64 72 69 66 64 73 77 68 66 68 67 69 62 63 68 67 65 63 59 53 48 47 39 33
13 20 32 37 40 34 342 346 312 303 302 298 298 296 306 320 346 5 350 16 22 22 47 48 60 63 60 65 67 68 73 78 77 73 77 70 71 69 70 69 70 69 67 67 68 64 62 69 60 56 53 50 47 44
11 21 26 32 38 37 354 321 313 299 294 293 291 286 297 315 340 331 335 352 22 37 44 54 62 62 66 68 69 67 73 84 77 80 82 79 75 73 73 72 70 69 69 72 71 69 67 65 70 59 57 55 53 47
13 21 27 23 37 30 20 317 301 296 294 294 292 293 297 313 306 311 329 346 21 37 36 57 63 69 70 66 65 63 74 86 82 82 89 79 72 78 78 75 73 73 77 74 71 69 66 63 60 57 56 54 54 53
14 23 22 19 24 25 19 332 300 293 288 289 292 292 293 300 297 304 329 360 11 18 22 37 44 47 52 59 62 64 72 87 84 84 90 87 86 85 84 84 80 76 75 72 71 69 66 63 61 61 61 63 64 59
15 15 20 31 30 26 13 337 301 298 294 289 283 285 289 287 292 316 343 350 351 5 9 19 32 41 41 49 50 55 69 77 84 79 91 88 79 77 85 87 84 76 74 72 70 67 66 65 62 62 63 63 63 63
8 11 8 7 16 25 16 329 299 296 300 297 291 286 284 290 299 311 325 328 334 338 337 353 14 36 38 47 52 72 72 72 69 79 85 83 78 75 71 67 63 63 72 67 68 75 73 69 66 66 65 65 66 67
9 8 7 11 18 23 31 358 312 297 293 299 288 282 290 300 299 294 295 305 318 328 326 334 354 17 32 44 54 66 78 81 83 84 89 89 92 91 89 77 84 94 86 67 69 64 58 66 65 68 71 70 70 69
4 6 9 17 24 29 31 331 300 285 279 276 279 277 274 277 276 273 280 294 311 309 305 309 340 15 34 48 57 57 84 81 88 89 91 93 102 96 103 99 95 98 88 76 71 71 73 77 76 80 78 78 78 75
6 12 13 23 23 8 9 332 275 254 258 256 261 265 271 277 280 278 273 272 271 272 281 300 328 6 43 66 81 60 97 97 99 98 94 77 90 99 109 108 103 97 90 87 80 82 79 87 78 76 76 72 72 80
10 14 15 13 12 344 316 326 287 256 246 244 268 295 290 286 278 277 291 289 283 281 287 269 296 337 49 100 117 112 101 88 98 106 102 92 90 95 106 110 108 100 96 95 89 81 83 84 81 80 78 79 77 75
7 22 12 7 6 2 353 335 322 294 345 357 307 320 293 270 292 298 317 310 298 296 296 295 310 328 72 94 115 71 80 94 108 116 110 94 46 82 100 108 106 105 104 104 97 90 89 87 84 85 83 80 80 78